When you browse on this site, cookies collect data to enhance your experience and personalize the content and advertising you see.
Visit our Privacy Policy to learn more. By continuing to use the site, you agree to this use of cookies and data.
  • In United Kingdom
  • List of Countries
  • For 7 days
  • Water Temperature
  • Weather Map
  • Weather Widgets
  • user-avatar
    Login

    Hourly Weather Szazhalombatta

    Today, 29 January, Wednesday

    Time Temperature Precipitation Wind Pressure Humidity
    00:00 +1°C° 0.2 mm 4 mps 744 mmHg 84%
    01:00 +2°C° 0 mm 3 mps 745 mmHg 90%
    02:00 +1°C° 0 mm 4 mps 745 mmHg 86%
    03:00 +1°C° 0 mm 4 mps 745 mmHg 82%
    04:00 +1°C° 0 mm 4 mps 745 mmHg 78%
    05:00 0°C° 0 mm 4 mps 745 mmHg 82%
    06:00 +1°C° 0 mm 3 mps 746 mmHg 86%
    07:00 0°C° 0 mm 3 mps 746 mmHg 93%
    08:00 0°C° 0 mm 4 mps 746 mmHg 90%
    09:00 +1°C° 0 mm 4 mps 747 mmHg 86%
    10:00 +2°C° 0 mm 5 mps 747 mmHg 82%
    11:00 +2°C° 0.2 mm 5 mps 747 mmHg 81%
    12:00 +3°C° 0.2 mm 5 mps 747 mmHg 80%
    13:00 +5°C° 0 mm 4 mps 748 mmHg 75%
    14:00 +4°C° 0.1 mm 4 mps 747 mmHg 77%
    15:00 +3°C° 0.1 mm 4 mps 747 mmHg 79%
    16:00 +3°C° 0.1 mm 3 mps 747 mmHg 80%
    17:00 +2°C° 0 mm 3 mps 748 mmHg 80%
    18:00 +2°C° 0 mm 3 mps 748 mmHg 80%
    19:00 +2°C° 0 mm 2 mps 749 mmHg 80%
    20:00 +1°C° 0 mm 3 mps 749 mmHg 78%
    21:00 +1°C° 0 mm 3 mps 749 mmHg 76%
    22:00 +1°C° 0 mm 3 mps 749 mmHg 74%
    23:00 0°C° 0.6 mm 4 mps 750 mmHg 80%

    Tomorrow, 30 January, Thursday

    Time Temperature Precipitation Wind Pressure Humidity
    00:00 0°C° 0.6 mm 5 mps 750 mmHg 86%
    01:00 -1°C° 0.6 mm 6 mps 751 mmHg 92%
    02:00 0°C° 0.1 mm 5 mps 751 mmHg 91%
    03:00 0°C° 0.1 mm 5 mps 752 mmHg 89%
    04:00 0°C° 0.1 mm 4 mps 752 mmHg 87%
    05:00 -1°C° 0 mm 4 mps 752 mmHg 85%
    06:00 -1°C° 0 mm 4 mps 753 mmHg 83%
    07:00 -1°C° 0 mm 4 mps 753 mmHg 82%
    08:00 0°C° 0 mm 4 mps 753 mmHg 78%
    09:00 +1°C° 0 mm 4 mps 753 mmHg 74%
    10:00 +1°C° 0 mm 4 mps 754 mmHg 71%
    11:00 +3°C° 0 mm 4 mps 754 mmHg 72%
    12:00 +4°C° 0 mm 4 mps 753 mmHg 72%
    13:00 +3°C° 0 mm 5 mps 753 mmHg 73%
    14:00 +4°C° 0 mm 4 mps 753 mmHg 73%
    15:00 +4°C° 0 mm 4 mps 753 mmHg 72%
    16:00 +4°C° 0 mm 3 mps 752 mmHg 72%
    17:00 +3°C° 0 mm 3 mps 752 mmHg 74%
    18:00 +3°C° 0 mm 3 mps 752 mmHg 76%
    19:00 +2°C° 0 mm 3 mps 752 mmHg 77%
    20:00 +2°C° 0 mm 3 mps 751 mmHg 77%
    21:00 +2°C° 0 mm 3 mps 751 mmHg 77%
    22:00 +2°C° 0 mm 3 mps 751 mmHg 77%
    23:00 +2°C° 0 mm 3 mps 750 mmHg 79%

    Day after tomorrow, 31 January, Friday

    Time Temperature Precipitation Wind Pressure Humidity
    00:00 +2°C° 0 mm 3 mps 750 mmHg 81%
    01:00 +2°C° 0 mm 2 mps 750 mmHg 83%
    02:00 +3°C° 0 mm 2 mps 750 mmHg 85%
    03:00 +3°C° 0 mm 2 mps 749 mmHg 86%
    04:00 +4°C° 0 mm 2 mps 749 mmHg 87%
    05:00 +3°C° 0.1 mm 3 mps 749 mmHg 87%
    06:00 +3°C° 0.1 mm 3 mps 748 mmHg 87%
    07:00 +4°C° 0.1 mm 3 mps 748 mmHg 87%
    08:00 +4°C° 0.1 mm 4 mps 748 mmHg 83%
    09:00 +4°C° 0.1 mm 4 mps 748 mmHg 79%
    10:00 +5°C° 0.1 mm 4 mps 748 mmHg 75%
    11:00 +6°C° 0 mm 5 mps 748 mmHg 72%
    12:00 +8°C° 0 mm 6 mps 748 mmHg 69%
    13:00 +10°C° 0 mm 8 mps 748 mmHg 65%
    14:00 +10°C° 0 mm 7 mps 748 mmHg 68%
    15:00 +10°C° 0 mm 7 mps 748 mmHg 70%
    16:00 +10°C° 0 mm 6 mps 748 mmHg 73%
    17:00 +9°C° 0 mm 6 mps 749 mmHg 75%
    18:00 +8°C° 0 mm 5 mps 749 mmHg 77%
    19:00 +7°C° 0 mm 5 mps 750 mmHg 79%
    20:00 +7°C° 0 mm 5 mps 750 mmHg 80%
    21:00 +7°C° 0 mm 4 mps 750 mmHg 81%
    22:00 +7°C° 0 mm 4 mps 751 mmHg 81%
    23:00 +6°C° 0 mm 4 mps 751 mmHg 82%

    1 February, Saturday

    Time Temperature Precipitation Wind Pressure Humidity
    00:00 +7°C° 0 mm 3 mps 751 mmHg 84%
    01:00 +7°C° 0 mm 3 mps 751 mmHg 85%
    02:00 +7°C° 0 mm 3 mps 751 mmHg 85%
    03:00 +7°C° 0 mm 3 mps 751 mmHg 85%
    04:00 +5°C° 0 mm 3 mps 751 mmHg 85%
    05:00 +5°C° 0 mm 3 mps 751 mmHg 86%
    06:00 +6°C° 0 mm 2 mps 751 mmHg 87%
    07:00 +5°C° 0 mm 2 mps 751 mmHg 88%
    08:00 +7°C° 0 mm 3 mps 751 mmHg 84%
    09:00 +8°C° 0 mm 3 mps 751 mmHg 80%
    10:00 +9°C° 0 mm 3 mps 751 mmHg 76%
    11:00 +10°C° 0 mm 4 mps 751 mmHg 74%
    12:00 +11°C° 0 mm 4 mps 750 mmHg 73%
    13:00 +12°C° 0 mm 4 mps 750 mmHg 71%
    14:00 +11°C° 0 mm 4 mps 750 mmHg 73%
    15:00 +11°C° 0 mm 4 mps 749 mmHg 74%
    16:00 +11°C° 0 mm 3 mps 749 mmHg 76%
    17:00 +10°C° 0 mm 3 mps 748 mmHg 79%
    18:00 +9°C° 0 mm 3 mps 748 mmHg 82%
    19:00 +9°C° 0 mm 3 mps 748 mmHg 85%
    20:00 +9°C° 0 mm 3 mps 748 mmHg 87%
    21:00 +9°C° 0 mm 3 mps 748 mmHg 88%
    22:00 +9°C° 0 mm 3 mps 747 mmHg 89%
    23:00 +8°C° 0 mm 4 mps 747 mmHg 88%

    2 February, Sunday

    Time Temperature Precipitation Wind Pressure Humidity
    00:00 +8°C° 0 mm 4 mps 747 mmHg 88%
    01:00 +8°C° 0 mm 4 mps 747 mmHg 87%
    02:00 +8°C° 0.1 mm 5 mps 748 mmHg 83%
    03:00 +7°C° 0.1 mm 5 mps 748 mmHg 79%
    04:00 +7°C° 0.1 mm 6 mps 748 mmHg 75%
    05:00 +7°C° 0 mm 6 mps 749 mmHg 72%
    06:00 +5°C° 0 mm 6 mps 750 mmHg 70%
    07:00 +5°C° 0 mm 5 mps 750 mmHg 68%
    08:00 +5°C° 0 mm 6 mps 751 mmHg 63%
    09:00 +6°C° 0 mm 7 mps 751 mmHg 59%
    10:00 +6°C° 0 mm 8 mps 752 mmHg 55%
    11:00 +7°C° 0 mm 8 mps 752 mmHg 52%
    12:00 +7°C° 0 mm 8 mps 752 mmHg 50%
    13:00 +9°C° 0 mm 8 mps 752 mmHg 48%
    14:00 +8°C° 0 mm 6 mps 752 mmHg 50%
    15:00 +8°C° 0 mm 5 mps 752 mmHg 52%
    16:00 +9°C° 0 mm 3 mps 752 mmHg 54%
    17:00 +8°C° 0 mm 3 mps 752 mmHg 57%
    18:00 +7°C° 0 mm 2 mps 752 mmHg 61%
    19:00 +7°C° 0 mm 2 mps 752 mmHg 64%
    20:00 +7°C° 0 mm 2 mps 751 mmHg 66%
    21:00 +7°C° 0 mm 2 mps 751 mmHg 68%
    22:00 +7°C° 0 mm 2 mps 751 mmHg 70%
    23:00 +7°C° 0 mm 3 mps 751 mmHg 74%

    3 February, Monday

    Time Temperature Precipitation Wind Pressure Humidity
    00:00 +6°C° 0 mm 4 mps 751 mmHg 77%
    01:00 +7°C° 0 mm 4 mps 750 mmHg 80%
    02:00 +7°C° 0 mm 5 mps 750 mmHg 81%
    03:00 +7°C° 0 mm 5 mps 750 mmHg 81%
    04:00 +7°C° 0 mm 5 mps 749 mmHg 81%
    05:00 +7°C° 0 mm 5 mps 749 mmHg 81%
    06:00 +7°C° 0 mm 5 mps 750 mmHg 81%
    07:00 +7°C° 0 mm 5 mps 750 mmHg 81%
    08:00 +8°C° 0 mm 6 mps 750 mmHg 77%
    09:00 +9°C° 0 mm 6 mps 751 mmHg 74%
    10:00 +10°C° 0 mm 6 mps 751 mmHg 70%
    11:00 +10°C° 0 mm 7 mps 751 mmHg 67%
    12:00 +11°C° 0 mm 7 mps 752 mmHg 64%
    13:00 +11°C° 0 mm 8 mps 752 mmHg 61%
    14:00 +10°C° 0 mm 7 mps 752 mmHg 63%
    15:00 +10°C° 0 mm 6 mps 752 mmHg 65%
    16:00 +9°C° 0 mm 5 mps 752 mmHg 67%
    17:00 +9°C° 0 mm 5 mps 752 mmHg 71%
    18:00 +8°C° 0 mm 4 mps 753 mmHg 75%
    19:00 +7°C° 0 mm 4 mps 753 mmHg 79%
    20:00 +8°C° 0.2 mm 3 mps 753 mmHg 82%
    21:00 +8°C° 0.2 mm 3 mps 753 mmHg 85%
    22:00 +7°C° 0.2 mm 2 mps 752 mmHg 88%
    23:00 +7°C° 0.6 mm 3 mps 752 mmHg 89%
    Show more